Weather History for Wrangell, AK

Change the Weather History Date:

Wednesday, February 13, 2013

  Actual Average Record
Temperature  
Mean Temperature 36 °F -  
Max Temperature 39 °F 36 °F 53 °F (2004)
Min Temperature 33 °F 25 °F 1 °F (1975)
Degree Days  
Heating Degree Days 29    
Moisture  
Dew Point 30 °F    
Average Humidity 76    
Maximum Humidity 87    
Minimum Humidity 61    
Precipitation  
Precipitation 0.00 in - - ()
Sea Level Pressure  
Sea Level Pressure 30.28 in    
Wind  
Wind Speed 8 mph (ESE)    
Max Wind Speed 16 mph    
Max Gust Speed 23 mph    
Visibility 10 miles    
Events      
Averages and records for this station are not official NWS values.
T = Trace of Precipitation, MM = Missing Value Source: NWS Daily Summary

Daily Weather History Graph

Daily Weather History Graph

Search for Another Location

Airport:

Trip Planner

Search our weather history database for the weather conditions in past years. The results will help you decide how hot, cold, wet, or windy it might be!

Date:

Astronomy

Feb. 13, 2013 Rise Set
Actual Time 7:19 AM AKST 4:48 PM AKST
Civil Twilight 6:40 AM AKST 5:28 PM AKST
Nautical Twilight 5:55 AM AKST 6:12 PM AKST
Astronomical Twilight 5:12 AM AKST 6:55 PM AKST
Moon 7:59 AM AKST (2/13) 9:58 PM AKST (2/13)
Length of Visible Light 10h 48m
Length of Day
9h 28m
Waxing Crescent, 15% of the Moon is Illuminated
Feb 13
Waxing Crescent
Feb 17
First Quarter
Feb 25
Full
Mar 4
Last Quarter
Mar 11
New

Hourly Weather History & Observations

Time (AKST) Temp. Windchill Dew Point Humidity Pressure Visibility Wind Dir Wind Speed Gust Speed Precip Events Conditions
12:16 AM 35.6 °F 29.9 °F 28.4 °F 75% 30.21 in 10.0 mi ESE 6.9 mph - N/A   Overcast
12:36 AM 35.6 °F 30.7 °F 28.4 °F 75% 30.21 in 10.0 mi SE 5.8 mph - N/A   Overcast
12:56 AM 35.6 °F 30.7 °F 30.2 °F 81% 30.22 in 10.0 mi ESE 5.8 mph - N/A   Overcast
1:16 AM 35.6 °F 28.0 °F 30.2 °F 81% 30.22 in 10.0 mi ESE 10.4 mph - N/A   Overcast
1:36 AM 35.6 °F 29.9 °F 30.2 °F 81% 30.23 in 10.0 mi SE 6.9 mph - N/A   Overcast
1:56 AM 35.6 °F 28.0 °F 30.2 °F 81% 30.23 in 10.0 mi East 10.4 mph - N/A   Overcast
2:16 AM 35.6 °F 31.7 °F 30.2 °F 81% 30.24 in 10.0 mi ESE 4.6 mph - N/A   Overcast
2:36 AM 35.6 °F 29.9 °F 28.4 °F 75% 30.24 in 10.0 mi SE 6.9 mph - N/A   Overcast
2:56 AM 35.6 °F 29.2 °F 30.2 °F 81% 30.25 in 10.0 mi ESE 8.1 mph - N/A   Overcast
3:16 AM 35.6 °F - 28.4 °F 75% 30.26 in 10.0 mi Calm Calm - N/A   Overcast
3:36 AM 35.6 °F 29.9 °F 28.4 °F 75% 30.26 in 10.0 mi ESE 6.9 mph - N/A   Overcast
3:56 AM 35.6 °F 29.2 °F 30.2 °F 81% 30.26 in 10.0 mi East 8.1 mph - N/A   Overcast
4:16 AM 35.6 °F 28.0 °F 30.2 °F 81% 30.27 in 10.0 mi East 10.4 mph - N/A   Overcast
4:36 AM 35.6 °F 29.9 °F 30.2 °F 81% 30.27 in 10.0 mi East 6.9 mph - N/A   Overcast
4:56 AM 35.6 °F 29.9 °F 30.2 °F 81% 30.27 in 10.0 mi East 6.9 mph - N/A   Overcast
5:16 AM 35.6 °F 29.2 °F 30.2 °F 81% 30.28 in 10.0 mi ESE 8.1 mph - N/A   Overcast
5:36 AM 35.6 °F 29.9 °F 30.2 °F 81% 30.28 in 10.0 mi ESE 6.9 mph - N/A   Mostly Cloudy
5:56 AM 33.8 °F 27.0 °F 30.2 °F 87% 30.27 in 10.0 mi East 8.1 mph - N/A   Overcast
6:16 AM 35.6 °F 28.6 °F 30.2 °F 81% 30.27 in 10.0 mi East 9.2 mph - N/A   Overcast
6:36 AM 35.6 °F 28.0 °F 30.2 °F 81% 30.27 in 10.0 mi East 10.4 mph - N/A   Overcast
6:56 AM 35.6 °F 29.2 °F 30.2 °F 81% 30.27 in 10.0 mi ESE 8.1 mph - N/A   Mostly Cloudy
7:16 AM 35.6 °F 29.9 °F 30.2 °F 81% 30.28 in 10.0 mi SSE 6.9 mph - N/A   Mostly Cloudy
7:36 AM 35.6 °F 31.7 °F 30.2 °F 81% 30.29 in 10.0 mi East 4.6 mph - N/A   Mostly Cloudy
7:56 AM 35.6 °F 29.9 °F 30.2 °F 81% 30.30 in 10.0 mi NE 6.9 mph - N/A   Overcast
8:16 AM 35.6 °F 32.8 °F 30.2 °F 81% 30.31 in 10.0 mi ENE 3.5 mph - N/A   Overcast
8:36 AM 35.6 °F 29.2 °F 30.2 °F 81% 30.31 in 10.0 mi ESE 8.1 mph - N/A   Overcast
8:56 AM 35.6 °F 28.0 °F 30.2 °F 81% 30.31 in 10.0 mi SE 10.4 mph - N/A   Mostly Cloudy
9:16 AM 35.6 °F 29.9 °F 30.2 °F 81% 30.32 in 10.0 mi ESE 6.9 mph - N/A   Mostly Cloudy
9:36 AM 35.6 °F 31.7 °F 28.4 °F 75% 30.32 in 10.0 mi SSE 4.6 mph - N/A   Mostly Cloudy
9:56 AM 35.6 °F - 30.2 °F 81% 30.32 in 10.0 mi Calm Calm - N/A   Overcast
10:16 AM 35.6 °F - 30.2 °F 81% 30.33 in 10.0 mi Calm Calm - N/A   Overcast
10:36 AM 37.4 °F 32.1 °F 30.2 °F 75% 30.33 in 10.0 mi ESE 6.9 mph - N/A   Overcast
10:56 AM 37.4 °F 30.3 °F 30.2 °F 75% 30.33 in 10.0 mi ESE 10.4 mph - N/A   Overcast
11:16 AM 37.4 °F 29.8 °F 32.0 °F 81% 30.33 in 10.0 mi East 11.5 mph - N/A   Overcast
11:36 AM 37.4 °F 28.9 °F 32.0 °F 81% 30.32 in 10.0 mi East 13.8 mph - N/A   Overcast
11:56 AM 39.2 °F 33.6 °F 30.2 °F 70% 30.33 in 10.0 mi ESE 8.1 mph - N/A   Mostly Cloudy
12:16 PM 39.2 °F 31.2 °F 33.8 °F 81% 30.32 in 10.0 mi East 13.8 mph 17.3 mph N/A   Mostly Cloudy
12:36 PM 39.2 °F 32.5 °F 32.0 °F 75% 30.33 in 10.0 mi East 10.4 mph - N/A   Mostly Cloudy
12:56 PM 39.2 °F 32.5 °F 30.2 °F 70% 30.33 in 10.0 mi SE 10.4 mph - N/A   Mostly Cloudy
1:16 PM 39.2 °F 33.0 °F 28.4 °F 65% 30.33 in 10.0 mi SE 9.2 mph - N/A   Mostly Cloudy
1:36 PM 39.2 °F 31.6 °F 30.2 °F 70% 30.32 in 10.0 mi SE 12.7 mph 16.1 mph N/A   Mostly Cloudy
1:56 PM 39.2 °F 32.5 °F 30.2 °F 70% 30.33 in 10.0 mi ESE 10.4 mph - N/A   Overcast
2:16 PM 39.2 °F 30.8 °F 32.0 °F 75% 30.31 in 10.0 mi East 15.0 mph - N/A   Overcast
2:36 PM 39.2 °F 31.6 °F 30.2 °F 70% 30.31 in 10.0 mi ESE 12.7 mph - N/A   Overcast
2:56 PM 39.2 °F 33.0 °F 30.2 °F 70% 30.30 in 10.0 mi ESE 9.2 mph - N/A   Overcast
3:16 PM 39.2 °F 31.6 °F 30.2 °F 70% 30.29 in 10.0 mi ESE 12.7 mph - N/A   Mostly Cloudy
3:36 PM 39.2 °F 32.0 °F 28.4 °F 65% 30.29 in 10.0 mi ESE 11.5 mph - N/A   Mostly Cloudy
3:56 PM 39.2 °F 31.2 °F 28.4 °F 65% 30.28 in 10.0 mi ESE 13.8 mph - N/A   Mostly Cloudy
4:16 PM 39.2 °F 32.5 °F 30.2 °F 70% 30.28 in 10.0 mi ESE 10.4 mph - N/A   Mostly Cloudy
4:36 PM 39.2 °F 32.5 °F 28.4 °F 65% 30.27 in 10.0 mi ESE 10.4 mph - N/A   Mostly Cloudy
4:56 PM 37.4 °F 30.3 °F 30.2 °F 75% 30.28 in 10.0 mi East 10.4 mph - N/A   Mostly Cloudy
5:16 PM 37.4 °F 30.8 °F 30.2 °F 75% 30.29 in 10.0 mi East 9.2 mph - N/A   Mostly Cloudy
5:36 PM 37.4 °F 31.4 °F 30.2 °F 75% 30.29 in 10.0 mi East 8.1 mph - N/A   Mostly Cloudy
5:56 PM 37.4 °F 29.8 °F 32.0 °F 81% 30.28 in 10.0 mi East 11.5 mph - N/A   Overcast
6:16 PM 37.4 °F 30.3 °F 30.2 °F 75% 30.27 in 10.0 mi East 10.4 mph - N/A   Overcast
6:36 PM 37.4 °F 30.3 °F 30.2 °F 75% 30.27 in 10.0 mi East 10.4 mph - N/A   Overcast
6:56 PM 37.4 °F 29.8 °F 30.2 °F 75% 30.26 in 10.0 mi East 11.5 mph - N/A   Overcast
7:16 PM 37.4 °F 30.8 °F 30.2 °F 75% 30.26 in 10.0 mi East 9.2 mph - N/A   Overcast
7:36 PM 39.2 °F 30.5 °F 26.6 °F 61% 30.25 in 10.0 mi SE 16.1 mph 21.9 mph N/A   Overcast
7:56 PM 39.2 °F 31.2 °F 28.4 °F 65% 30.25 in 10.0 mi SE 13.8 mph 19.6 mph N/A   Overcast
8:16 PM 39.2 °F 31.6 °F 28.4 °F 65% 30.24 in 10.0 mi SE 12.7 mph 18.4 mph N/A   Overcast
8:36 PM 39.2 °F 31.6 °F 28.4 °F 65% 30.24 in 10.0 mi SE 12.7 mph 21.9 mph N/A   Overcast
8:56 PM 37.4 °F 29.8 °F 28.4 °F 70% 30.24 in 10.0 mi SSE 11.5 mph 19.6 mph N/A   Overcast
9:16 PM 37.4 °F 28.2 °F 28.4 °F 70% 30.24 in 10.0 mi SE 16.1 mph 23.0 mph N/A   Overcast
9:36 PM 37.4 °F 28.5 °F 28.4 °F 70% 30.25 in 10.0 mi SE 15.0 mph 23.0 mph N/A   Overcast
9:56 PM 37.4 °F 29.8 °F 28.4 °F 70% 30.26 in 10.0 mi SE 11.5 mph - N/A   Overcast
10:16 PM 37.4 °F 28.9 °F 30.2 °F 75% 30.25 in 10.0 mi ESE 13.8 mph 19.6 mph N/A   Overcast
10:36 PM 37.4 °F 28.5 °F 30.2 °F 75% 30.24 in 10.0 mi ESE 15.0 mph - N/A   Overcast
10:56 PM 37.4 °F 30.3 °F 30.2 °F 75% 30.24 in 10.0 mi East 10.4 mph 16.1 mph N/A   Overcast
11:16 PM 37.4 °F 30.3 °F 30.2 °F 75% 30.23 in 10.0 mi East 10.4 mph - N/A   Overcast
11:36 PM 37.4 °F 31.4 °F 32.0 °F 81% 30.23 in 10.0 mi East 8.1 mph - N/A   Overcast
11:56 PM 37.4 °F 29.8 °F 32.0 °F 81% 30.23 in 10.0 mi East 11.5 mph 16.1 mph N/A   Overcast